Location: Arbon
(43.0005°N, 0.7472°E)
Time: 11:00:44
(UTC+00:00)

SL-08 R/B - Pass Details

Date: 22 April 2026
Orbit: 956 x 1010 km, 82.9° (Epoch: 15 May)

Event Time Altitude Azimuth Distance (km) Brightness Sun altitude
Rises 20:25:36 0° 354° (N) 3,661 8.2 -16.8°
Reaches altitude 10° 20:28:08 10° 357° (N) 2,717 7.4 -17.1°
Maximum altitude 20:34:20 67° 80° (E) 1,056 4.5 -18.0°
Enters shadow 20:38:00 26° 157° (SSE) 1,827 5.4 -18.6°
